Location: Little Maitland River
(43.8022°N, 81.1549°W)
Time: 21:58:42
(UTC+00:00)

NOSS 3-1 (A) - Visible Passes

Search period start: 12 March 2026 00:00
Search period end: 22 March 2026 00:00
Orbit: 613 x 1593 km, 63.4° (Epoch: 10 January)

Date Brightness Start Highest point End Pass type
(mag) Time Alt. Az. Time Alt. Az. Time Alt. Az.
12 Mar 5.6 07:53:44 14° N 07:53:44 14° N 07:56:30 10° NNE visible
12 Mar 5.8 09:43:41 10° NNW 09:46:56 14° NNE 09:50:31 10° NE visible
13 Mar 5.8 07:09:11 15° N 07:09:11 15° N 07:10:49 10° NNE visible
13 Mar 5.8 08:57:46 10° NNW 09:00:23 13° N 09:03:13 10° NNE visible
13 Mar 5.7 10:48:28 10° NNW 10:53:50 24° NNE 11:00:10 10° E visible
14 Mar 6.1 06:24:38 12° NNE 06:24:38 12° NNE 06:25:15 10° NNE visible
14 Mar 5.8 08:11:58 11° NNW 08:13:49 12° N 08:16:28 10° NNE visible
14 Mar 5.8 10:02:59 10° NNW 10:07:31 19° NNE 10:12:44 10° ENE visible
15 Mar 5.8 07:27:23 14° N 07:27:23 14° N 07:30:18 10° NNE visible
15 Mar 5.9 09:17:25 10° NNW 09:21:04 15° NNE 09:25:11 10° NE visible
15 Mar 5.4 11:07:32 10° NNW 11:13:55 37° NE 11:21:44 10° ESE visible
16 Mar 5.9 06:42:46 14° N 06:42:46 14° N 06:44:31 10° NNE visible
16 Mar 5.9 08:31:39 10° NNW 08:34:32 13° N 08:37:43 10° NE visible
16 Mar 5.7 10:22:04 10° NNW 10:27:49 28° NE 10:34:42 10° E visible
17 Mar 6.0 05:58:08 12° NNE 05:58:08 12° NNE 05:58:54 10° NNE visible
17 Mar 5.9 07:45:31 10° NNW 07:47:59 12° N 07:50:39 10° NNE visible
17 Mar 5.9 09:36:36 10° NNW 09:41:34 21° NNE 09:47:21 10° ENE visible
18 Mar 5.9 07:00:47 13° NNW 07:01:26 13° N 07:04:11 10° NNE visible
18 Mar 6.0 08:51:04 10° NNW 08:55:11 17° NNE 08:59:50 10° ENE visible
18 Mar 5.2 10:41:09 10° NNW 10:47:49 44° NE 10:56:00 10° ESE visible
19 Mar 5.9 06:16:04 14° N 06:16:04 14° N 06:18:15 10° NNE visible
19 Mar 6.0 08:05:26 10° NNW 08:08:42 14° NNE 08:12:18 10° NE visible
19 Mar 5.6 09:55:40 10° NNW 10:01:46 32° NE 10:09:08 10° E visible
20 Mar 6.0 05:31:18 13° N 05:31:18 13° N 05:32:34 10° NNE visible
20 Mar 6.0 07:19:31 10° NNW 07:22:08 13° N 07:24:58 10° NNE visible
20 Mar 5.9 09:10:12 10° NNW 09:15:34 24° NNE 09:21:55 10° E visible
21 Mar 6.0 04:46:27 12° NNE 04:46:27 12° NNE 04:46:58 10° NNE visible
21 Mar 6.0 06:33:46 11° NNW 06:35:34 12° N 06:38:12 10° NNE visible
21 Mar 6.0 08:24:43 10° NNW 08:29:15 19° NNE 08:34:29 10° ENE visible
21 Mar 4.9 10:14:46 10° NNW 10:21:39 52° NE 10:30:10 10° ESE visible
